TimeEST,TemperatureF,Dew PointF,Humidity,Sea Level PressureIn,VisibilityMPH,Wind Direction,Wind SpeedMPH,Gust SpeedMPH,PrecipitationIn,Events,Conditions,WindDirDegrees,DateUTC
12:56 AM,34.0,27.0,75,29.95,10.0,South,6.9,-,N/A,,Clear,180,2014-01-13 05:56:00
1:56 AM,35.1,26.1,70,29.95,10.0,South,8.1,-,N/A,,Clear,180,2014-01-13 06:56:00
2:56 AM,34.0,25.0,70,29.95,10.0,South,4.6,-,N/A,,Clear,180,2014-01-13 07:56:00
3:56 AM,35.1,24.1,64,29.92,10.0,South,8.1,-,N/A,,Clear,180,2014-01-13 08:56:00
4:56 AM,36.0,24.1,62,29.89,10.0,South,5.8,-,N/A,,Mostly Cloudy,170,2014-01-13 09:56:00
5:56 AM,37.9,23.0,55,29.87,10.0,South,8.1,-,N/A,,Clear,170,2014-01-13 10:56:00
6:56 AM,37.9,24.1,57,29.85,10.0,South,10.4,23.0,N/A,,Clear,170,2014-01-13 11:56:00
7:56 AM,39.0,24.1,55,29.85,10.0,South,15.0,24.2,N/A,,Clear,170,2014-01-13 12:56:00
8:56 AM,41.0,25.0,53,29.85,10.0,South,9.2,21.9,N/A,,Clear,170,2014-01-13 13:56:00
9:56 AM,41.0,27.0,57,29.83,10.0,SSE,12.7,20.7,N/A,,Clear,160,2014-01-13 14:56:00
10:56 AM,46.0,27.0,47,29.81,10.0,South,10.4,19.6,N/A,,Clear,180,2014-01-13 15:56:00
11:56 AM,48.0,26.1,42,29.78,10.0,South,15.0,23.0,N/A,,Clear,190,2014-01-13 16:56:00
12:56 PM,48.0,26.1,42,29.74,10.0,South,12.7,23.0,N/A,,Clear,170,2014-01-13 17:56:00
1:56 PM,48.9,25.0,39,29.73,10.0,South,12.7,24.2,N/A,,Clear,190,2014-01-13 18:56:00
2:56 PM,48.9,25.0,39,29.72,10.0,South,11.5,20.7,N/A,,Clear,180,2014-01-13 19:56:00
3:56 PM,50.0,25.0,38,29.71,10.0,South,11.5,17.3,N/A,,Clear,180,2014-01-13 20:56:00
4:56 PM,48.9,26.1,41,29.72,10.0,South,11.5,20.7,0.00,Rain,Light Rain,180,2014-01-13 21:56:00
5:56 PM,51.1,26.1,38,29.71,10.0,South,11.5,21.9,0.00,,Overcast,180,2014-01-13 22:56:00
6:56 PM,50.0,27.0,41,29.69,10.0,South,10.4,26.5,0.00,Rain,Light Rain,180,2014-01-13 23:56:00
7:56 PM,46.9,32.0,56,29.69,10.0,South,9.2,17.3,0.00,Rain,Light Rain,170,2014-01-14 00:56:00
8:56 PM,46.9,30.9,54,29.70,10.0,South,9.2,18.4,0.00,,Overcast,190,2014-01-14 01:56:00
9:56 PM,45.0,34.0,65,29.70,10.0,South,8.1,18.4,0.00,Rain,Light Rain,180,2014-01-14 02:56:00
10:56 PM,43.0,37.0,80,29.68,8.0,South,9.2,-,0.01,Rain,Light Rain,180,2014-01-14 03:56:00
11:56 PM,43.0,37.9,82,29.67,6.0,South,9.2,19.6,0.04,Rain,Light Rain,180,2014-01-14 04:56:00